Flag for Italy Weather past 2 weeks in Bolzano, Italy

Now
28 °F

Clear.


Feels Like: 28 °F
Forecast: 29 / 48 °F
Wind: 1 mph from North

Location: Bolzano

Current Time: Dec 22, 2014 at 7:44:36 AM

Latest Report: Dec 22, 2014 at 6:50 AM


Visibility: 10 mi

Pressure: 30.42 "Hg

Humidity: 93%

Dew point: 27 °F

Location of BolzanoLocation

Historic Weather in Bolzano — Graph

°F

Bolzano temperature yesterday

Maximum temperature yesterday: 59 °F (at 2:50 PM)
Minimum temperature yesterday: 32 °F (at 9:50 PM)
Average temperature yesterday: 46 °F

Past Weeks' High & Low Weather Summary

 TemperatureHumidityPressure
High59 °F (Dec 21, 2:50 PM)100% (Dec 6, 10:50 PM)30.48 "Hg (Dec 6, 10:50 PM)
Low27 °F (Dec 11, 7:50 AM)23% (Dec 21, 12:50 PM)29.86 "Hg (Dec 16, 3:50 PM)
Average41 °F80%30.12 "Hg
* Reported Dec 6 10:50 PM — Dec 21 10:50 PM, Bolzano, Weather by CustomWeather, © 2014

Note: Actual official high and low records may vary slightly from our data, if they occured in-between our weather recording intervals... More about our weather records

Advertising

Bolzano weather history for previous 24 hours

 ConditionsComfort  
Time TempWeatherWind HumidityBarometerVisibility
10:50 PM
Dec 21
32 °FClear.2 mph80%30.48 "Hg10 mi
9:50 PM32 °FClear.2 mph80%30.48 "Hg10 mi
8:50 PM34 °FClear.2 mph75%30.45 "Hg10 mi
7:50 PM39 °FClear.1 mph61%30.45 "Hg10 mi
6:50 PM37 °FClear.2 mph70%30.42 "Hg10 mi
5:50 PM41 °FPassing clouds.5 mph57%30.39 "HgN/A
4:50 PM43 °FClear.3 mph53%30.36 "Hg10 mi
3:50 PM48 °FSunny.3 mph50%30.36 "Hg10 mi
2:50 PM59 °FSunny.2 mph23%30.36 "Hg10 mi
1:50 PM57 °FPassing clouds.5 mph25%30.36 "HgN/A
12:50 PM57 °FPassing clouds.5 mph23%30.36 "HgN/A
11:50 AM55 °FPassing clouds.6 mph28%30.36 "HgN/A
10:50 AM50 °FSunny.9 mph35%30.36 "Hg10 mi
9:50 AM46 °FSunny.5 mph37%30.36 "Hg10 mi
8:50 AM48 °FPassing clouds.6 mph32%30.33 "HgN/A
7:50 AM52 °FPassing clouds.9 mph24%30.33 "HgN/A
Weather by CustomWeather, © 2014

See weather overviewHow to use our weather pages